Time,TemperatureF,DewpointF,PressureIn,WindDirection,WindDirectionDegrees,WindSpeedMPH,WindSpeedGustMPH,Humidity,HourlyPrecipIn,Conditions,Clouds,dailyrainin,SoftwareType,DateUTC
2013-03-15 00:03:00,75.0,-99.9,29.99,SW,231,5.0,7.0,-999,-99.99,,,-99.99,,2013-03-15 04:03:00,
2013-03-15 00:23:00,75.0,-99.9,29.99,WSW,238,6.0,7.0,-999,-99.99,,,-99.99,,2013-03-15 04:23:00,
2013-03-15 00:33:00,75.0,-99.9,29.99,SW,234,4.0,6.0,-999,-99.99,,,-99.99,,2013-03-15 04:33:00,
2013-03-15 00:43:00,75.0,-99.9,29.98,SW,227,4.0,5.0,-999,-99.99,,,-99.99,,2013-03-15 04:43:00,
2013-03-15 00:53:00,75.0,-99.9,29.98,WSW,250,4.0,5.0,-999,-99.99,,,-99.99,,2013-03-15 04:53:00,
2013-03-15 01:02:00,75.0,-99.9,29.98,WSW,239,3.0,4.0,-999,-99.99,,,-99.99,,2013-03-15 05:02:00,
2013-03-15 01:12:00,75.0,-99.9,29.98,SW,214,2.0,4.0,-999,-99.99,,,-99.99,,2013-03-15 05:12:00,
2013-03-15 01:23:00,75.0,-99.9,29.98,SW,227,4.0,4.0,-999,-99.99,,,-99.99,,2013-03-15 05:23:00,
2013-03-15 01:32:00,75.0,-99.9,29.97,SW,215,3.0,5.0,-999,-99.99,,,-99.99,,2013-03-15 05:32:00,
2013-03-15 01:42:00,75.0,-99.9,29.97,WSW,244,6.0,6.0,-999,-99.99,,,-99.99,,2013-03-15 05:42:00,
2013-03-15 01:52:00,75.0,-99.9,29.96,SW,226,4.0,5.0,-999,-99.99,,,-99.99,,2013-03-15 05:52:00,
2013-03-15 02:02:00,74.0,-99.9,29.96,WSW,239,4.0,5.0,-999,-99.99,,,-99.99,,2013-03-15 06:02:00,
2013-03-15 02:13:00,74.0,-99.9,29.96,WSW,247,5.0,6.0,-999,-99.99,,,-99.99,,2013-03-15 06:13:00,
2013-03-15 02:22:00,74.0,-99.9,29.95,WSW,252,4.0,6.0,-999,-99.99,,,-99.99,,2013-03-15 06:22:00,
2013-03-15 02:33:00,74.0,-99.9,29.95,SW,234,4.0,5.0,-999,-99.99,,,-99.99,,2013-03-15 06:33:00,
2013-03-15 02:42:00,75.0,-99.9,29.95,SW,219,4.0,4.0,-999,-99.99,,,-99.99,,2013-03-15 06:42:00,
2013-03-15 02:53:00,75.0,-99.9,29.95,SW,219,4.0,4.0,-999,-99.99,,,-99.99,,2013-03-15 06:53:00,
2013-03-15 03:02:00,74.0,-99.9,29.94,South,187,4.0,5.0,-999,-99.99,,,-99.99,,2013-03-15 07:02:00,
2013-03-15 03:13:00,75.0,-99.9,29.94,SSW,209,3.0,4.0,-999,-99.99,,,-99.99,,2013-03-15 07:13:00,
2013-03-15 03:22:00,74.0,-99.9,29.93,SW,214,5.0,5.0,-999,-99.99,,,-99.99,,2013-03-15 07:22:00,
2013-03-15 03:32:00,74.0,-99.9,29.93,SSW,195,7.0,7.0,-999,-99.99,,,-99.99,,2013-03-15 07:32:00,
2013-03-15 03:42:00,74.0,-99.9,29.93,South,170,7.0,8.0,-999,-99.99,,,-99.99,,2013-03-15 07:42:00,
2013-03-15 03:52:00,75.0,-99.9,29.92,South,178,7.0,8.0,-999,-99.99,,,-99.99,,2013-03-15 07:52:00,
2013-03-15 04:02:00,75.0,-99.9,29.92,South,183,6.0,7.0,-999,-99.99,,,-99.99,,2013-03-15 08:02:00,
2013-03-15 04:12:00,75.0,-99.9,29.92,South,170,4.0,6.0,-999,-99.99,,,-99.99,,2013-03-15 08:12:00,
2013-03-15 04:23:00,75.0,-99.9,29.92,SSE,155,5.0,8.0,-999,-99.99,,,-99.99,,2013-03-15 08:23:00,
2013-03-15 04:33:00,75.0,-99.9,29.92,SSE,151,6.0,7.0,-999,-99.99,,,-99.99,,2013-03-15 08:33:00,
2013-03-15 04:42:00,74.0,-99.9,29.92,SSE,152,5.0,6.0,-999,-99.99,,,-99.99,,2013-03-15 08:42:00,
2013-03-15 04:53:00,74.0,-99.9,29.92,SSE,157,5.0,6.0,-999,-99.99,,,-99.99,,2013-03-15 08:53:00,
2013-03-15 05:02:00,74.0,-99.9,29.92,SSE,152,4.0,6.0,-999,-99.99,,,-99.99,,2013-03-15 09:02:00,
2013-03-15 05:12:00,74.0,-99.9,29.93,SSE,147,4.0,6.0,-999,-99.99,,,-99.99,,2013-03-15 09:12:00,
2013-03-15 05:22:00,75.0,-99.9,29.93,SE,139,4.0,5.0,-999,-99.99,,,-99.99,,2013-03-15 09:22:00,
2013-03-15 05:33:00,74.0,-99.9,29.93,SSE,162,4.0,5.0,-999,-99.99,,,-99.99,,2013-03-15 09:33:00,
2013-03-15 05:43:00,74.0,-99.9,29.94,WSW,252,5.0,6.0,-999,-99.99,,,-99.99,,2013-03-15 09:43:00,
2013-03-15 05:53:00,73.0,-99.9,29.94,WSW,254,6.0,6.0,-999,-99.99,,,-99.99,,2013-03-15 09:53:00,
2013-03-15 06:03:00,73.0,-99.9,29.95,WSW,254,7.0,8.0,-999,-99.99,,,-99.99,,2013-03-15 10:03:00,
2013-03-15 06:13:00,73.0,-99.9,29.95,WSW,253,6.0,7.0,-999,-99.99,,,-99.99,,2013-03-15 10:13:00,
2013-03-15 06:23:00,73.0,-99.9,29.95,WSW,239,5.0,6.0,-999,-99.99,,,-99.99,,2013-03-15 10:23:00,
2013-03-15 06:33:00,73.0,-99.9,29.96,WSW,238,4.0,5.0,-999,-99.99,,,-99.99,,2013-03-15 10:33:00,
2013-03-15 06:43:00,72.0,-99.9,29.96,WSW,240,5.0,5.0,-999,-99.99,,,-99.99,,2013-03-15 10:43:00,
2013-03-15 06:52:00,72.0,-99.9,29.96,SW,221,6.0,6.0,-999,-99.99,,,-99.99,,2013-03-15 10:52:00,
2013-03-15 07:03:00,72.0,-99.9,29.97,SW,223,5.0,6.0,-999,-99.99,,,-99.99,,2013-03-15 11:03:00,
2013-03-15 07:12:00,72.0,-99.9,29.97,SW,230,5.0,6.0,-999,-99.99,,,-99.99,,2013-03-15 11:12:00,
2013-03-15 07:23:00,72.0,-99.9,29.98,SSW,199,4.0,4.0,-999,-99.99,,,-99.99,,2013-03-15 11:23:00,
2013-03-15 07:33:00,73.0,-99.9,29.98,SW,217,4.0,4.0,-999,-99.99,,,-99.99,,2013-03-15 11:33:00,
2013-03-15 07:43:00,73.0,-99.9,29.98,SSW,192,4.0,5.0,-999,-99.99,,,-99.99,,2013-03-15 11:43:00,
2013-03-15 07:53:00,73.0,-99.9,29.98,SSW,199,2.0,3.0,-999,-99.99,,,-99.99,,2013-03-15 11:53:00,
2013-03-15 08:02:00,74.0,-99.9,29.99,SW,218,2.0,3.0,-999,-99.99,,,-99.99,,2013-03-15 12:02:00,
2013-03-15 08:12:00,74.0,-99.9,29.99,SW,234,3.0,4.0,-999,-99.99,,,-99.99,,2013-03-15 12:12:00,
2013-03-15 08:23:00,74.0,-99.9,30.00,SW,223,2.0,3.0,-999,-99.99,,,-99.99,,2013-03-15 12:23:00,
2013-03-15 08:32:00,74.0,-99.9,30.00,SW,220,2.0,2.0,-999,-99.99,,,-99.99,,2013-03-15 12:32:00,
2013-03-15 08:42:00,75.0,-99.9,30.00,SW,216,2.0,2.0,-999,-99.99,,,-99.99,,2013-03-15 12:42:00,
2013-03-15 08:52:00,76.0,-99.9,30.01,WNW,284,0.0,1.0,-999,-99.99,,,-99.99,,2013-03-15 12:52:00,
2013-03-15 09:02:00,76.0,-99.9,30.01,West,263,1.0,2.0,-999,-99.99,,,-99.99,,2013-03-15 13:02:00,
2013-03-15 09:12:00,76.0,-99.9,30.01,WSW,253,2.0,2.0,-999,-99.99,,,-99.99,,2013-03-15 13:12:00,
2013-03-15 09:22:00,77.0,-99.9,30.01,WSW,245,0.0,2.0,-999,-99.99,,,-99.99,,2013-03-15 13:22:00,
2013-03-15 09:30:00,78.0,-99.9,30.01,West,277,2.0,3.0,-999,-99.99,,,-99.99,,2013-03-15 13:30:00,
2013-03-15 09:32:00,76.0,-99.9,30.01,SW,231,1.0,2.0,-999,-99.99,,,-99.99,,2013-03-15 13:32:00,
2013-03-15 09:42:00,70.0,-99.9,30.01,NW,320,0.0,0.0,-999,-99.99,,,-99.99,,2013-03-15 13:42:00,
2013-03-15 09:53:00,78.0,-99.9,30.01,West,277,2.0,3.0,-999,-99.99,,,-99.99,,2013-03-15 13:53:00,
2013-03-15 10:02:00,78.0,-99.9,30.01,West,277,2.0,3.0,-999,-99.99,,,-99.99,,2013-03-15 14:02:00,
2013-03-15 10:12:00,78.0,-99.9,30.01,West,277,2.0,3.0,-999,-99.99,,,-99.99,,2013-03-15 14:12:00,
2013-03-15 10:22:00,78.0,-99.9,30.01,West,277,2.0,3.0,-999,-99.99,,,-99.99,,2013-03-15 14:22:00,
2013-03-15 16:03:00,81.0,-99.9,29.92,NE,50,8.0,11.0,-999,-99.99,,,-99.99,,2013-03-15 20:03:00,
2013-03-15 16:12:00,81.0,-99.9,29.92,NE,48,7.0,11.0,-999,-99.99,,,-99.99,,2013-03-15 20:12:00,
2013-03-15 16:22:00,82.0,-99.9,29.92,NNE,20,4.0,12.0,-999,-99.99,,,-99.99,,2013-03-15 20:22:00,
2013-03-15 16:32:00,81.0,-99.9,29.92,NNE,33,4.0,11.0,-999,-99.99,,,-99.99,,2013-03-15 20:32:00,
2013-03-15 16:42:00,80.0,-99.9,29.92,ENE,61,8.0,14.0,-999,-99.99,,,-99.99,,2013-03-15 20:42:00,
2013-03-15 16:52:00,81.0,-99.9,29.92,NE,46,6.0,12.0,-999,-99.99,,,-99.99,,2013-03-15 20:52:00,
2013-03-15 17:02:00,80.0,-99.9,29.92,ENE,61,7.0,11.0,-999,-99.99,,,-99.99,,2013-03-15 21:02:00,
2013-03-15 17:12:00,81.0,-99.9,29.92,NE,53,5.0,12.0,-999,-99.99,,,-99.99,,2013-03-15 21:12:00,
2013-03-15 17:22:00,80.0,-99.9,29.92,ENE,58,8.0,11.0,-999,-99.99,,,-99.99,,2013-03-15 21:22:00,
2013-03-15 17:33:00,80.0,-99.9,29.92,ENE,57,8.0,11.0,-999,-99.99,,,-99.99,,2013-03-15 21:33:00,
2013-03-15 17:43:00,80.0,-99.9,29.93,NE,46,8.0,11.0,-999,-99.99,,,-99.99,,2013-03-15 21:43:00,
2013-03-15 17:53:00,80.0,-99.9,29.93,NE,50,6.0,11.0,-999,-99.99,,,-99.99,,2013-03-15 21:53:00,
2013-03-15 18:04:00,80.0,-99.9,29.93,NE,56,7.0,10.0,-999,-99.99,,,-99.99,,2013-03-15 22:04:00,
2013-03-15 18:14:00,79.0,-99.9,29.93,NE,49,7.0,10.0,-999,-99.99,,,-99.99,,2013-03-15 22:14:00,
2013-03-15 18:22:00,79.0,-99.9,29.93,NE,46,9.0,11.0,-999,-99.99,,,-99.99,,2013-03-15 22:22:00,
2013-03-15 18:33:00,79.0,-99.9,29.94,NE,42,7.0,12.0,-999,-99.99,,,-99.99,,2013-03-15 22:33:00,
2013-03-15 18:42:00,78.0,-99.9,29.94,NE,39,9.0,11.0,-999,-99.99,,,-99.99,,2013-03-15 22:42:00,
2013-03-15 18:53:00,78.0,-99.9,29.94,NE,44,8.0,12.0,-999,-99.99,,,-99.99,,2013-03-15 22:53:00,
2013-03-15 19:03:00,78.0,-99.9,29.94,NE,47,9.0,11.0,-999,-99.99,,,-99.99,,2013-03-15 23:03:00,
2013-03-15 19:12:00,78.0,-99.9,29.94,NE,47,8.0,11.0,-999,-99.99,,,-99.99,,2013-03-15 23:12:00,
2013-03-15 19:22:00,78.0,-99.9,29.95,NE,51,6.0,10.0,-999,-99.99,,,-99.99,,2013-03-15 23:22:00,
2013-03-15 19:32:00,78.0,-99.9,29.95,NE,43,7.0,10.0,-999,-99.99,,,-99.99,,2013-03-15 23:32:00,
2013-03-15 19:42:00,78.0,-99.9,29.96,NE,46,7.0,10.0,-999,-99.99,,,-99.99,,2013-03-15 23:42:00,
2013-03-15 19:53:00,78.0,-99.9,29.97,NE,40,5.0,8.0,-999,-99.99,,,-99.99,,2013-03-15 23:53:00,
2013-03-15 20:03:00,78.0,-99.9,29.97,NE,51,6.0,10.0,-999,-99.99,,,-99.99,,2013-03-16 00:03:00,
2013-03-15 20:12:00,79.0,-99.9,29.97,NE,49,4.0,11.0,-999,-99.99,,,-99.99,,2013-03-16 00:12:00,
2013-03-15 20:22:00,79.0,-99.9,29.98,NE,49,5.0,9.0,-999,-99.99,,,-99.99,,2013-03-16 00:22:00,
2013-03-15 20:32:00,79.0,-99.9,29.98,NE,49,5.0,9.0,-999,-99.99,,,-99.99,,2013-03-16 00:32:00,
2013-03-15 20:42:00,78.0,-99.9,29.99,NE,47,6.0,9.0,-999,-99.99,,,-99.99,,2013-03-16 00:42:00,
2013-03-15 20:52:00,78.0,-99.9,29.99,NE,44,5.0,9.0,-999,-99.99,,,-99.99,,2013-03-16 00:52:00,
2013-03-15 21:03:00,78.0,-99.9,29.99,NE,41,7.0,8.0,-999,-99.99,,,-99.99,,2013-03-16 01:03:00,
2013-03-15 21:12:00,78.0,-99.9,30.00,ENE,57,5.0,9.0,-999,-99.99,,,-99.99,,2013-03-16 01:12:00,
2013-03-15 21:22:00,78.0,-99.9,30.01,NE,41,6.0,8.0,-999,-99.99,,,-99.99,,2013-03-16 01:22:00,
2013-03-15 21:32:00,78.0,-99.9,30.01,ENE,58,5.0,9.0,-999,-99.99,,,-99.99,,2013-03-16 01:32:00,
2013-03-15 21:42:00,78.0,-99.9,30.02,ENE,61,5.0,9.0,-999,-99.99,,,-99.99,,2013-03-16 01:42:00,
2013-03-15 21:53:00,78.0,-99.9,30.02,NE,36,4.0,8.0,-999,-99.99,,,-99.99,,2013-03-16 01:53:00,
2013-03-15 22:02:00,78.0,-99.9,30.02,NE,52,5.0,7.0,-999,-99.99,,,-99.99,,2013-03-16 02:02:00,
2013-03-15 22:13:00,78.0,-99.9,30.03,NE,55,5.0,9.0,-999,-99.99,,,-99.99,,2013-03-16 02:13:00,
2013-03-15 22:23:00,78.0,-99.9,30.02,NE,52,5.0,6.0,-999,-99.99,,,-99.99,,2013-03-16 02:23:00,
2013-03-15 22:33:00,78.0,-99.9,30.02,ENE,60,6.0,9.0,-999,-99.99,,,-99.99,,2013-03-16 02:33:00,
2013-03-15 22:43:00,78.0,-99.9,30.02,NE,42,6.0,10.0,-999,-99.99,,,-99.99,,2013-03-16 02:43:00,
2013-03-15 22:53:00,78.0,-99.9,30.02,NE,50,5.0,9.0,-999,-99.99,,,-99.99,,2013-03-16 02:53:00,
2013-03-15 23:02:00,78.0,-99.9,30.02,NE,56,7.0,10.0,-999,-99.99,,,-99.99,,2013-03-16 03:02:00,
2013-03-15 23:12:00,78.0,-99.9,30.01,NE,52,7.0,10.0,-999,-99.99,,,-99.99,,2013-03-16 03:12:00,
2013-03-15 23:22:00,78.0,-99.9,30.01,NE,56,7.0,11.0,-999,-99.99,,,-99.99,,2013-03-16 03:22:00,
2013-03-15 23:33:00,78.0,-99.9,30.01,NE,55,6.0,10.0,-999,-99.99,,,-99.99,,2013-03-16 03:33:00,
2013-03-15 23:43:00,78.0,-99.9,30.01,NE,56,6.0,8.0,-999,-99.99,,,-99.99,,2013-03-16 03:43:00,
2013-03-15 23:53:00,78.0,-99.9,30.01,ENE,58,7.0,10.0,-999,-99.99,,,-99.99,,2013-03-16 03:53:00,